VHASH YSHL-YBUD

Flight info

Callsign VHASH
Flight time N/A
Altitude 29000
Route TESAT H252 UPNEX/N0283F300 H140 MATLA/N0282F290 H140 IDNER H66 LAGOB/N0284F300 H252 BN Q67 LOAFA
Aircraft SF50/L-BDGRSWY/LB2U2

Departure

Time 2026-04-26 02:26
Airport Shellharbour Airport (YSHL)

Arrival

Time N/A
Airport Bundaberg Airport (YBUD)
Time Latitude Longitude Altitude Speed Heading
2026-04-26 02:15 -34.55856 150.78919 36 ft 0 kts 172°
2026-04-26 02:18 -34.55850 150.78918 33 ft 3 kts 172°
2026-04-26 02:18 -34.55839 150.78916 32 ft 0 kts 172°
2026-04-26 02:21 -34.55840 150.78916 32 ft 0 kts 172°
2026-04-26 02:21 -34.55843 150.78893 38 ft 5 kts 268°
2026-04-26 02:21 -34.55844 150.78876 30 ft 0 kts 268°
2026-04-26 02:22 -34.55846 150.78846 33 ft 8 kts 258°
2026-04-26 02:22 -34.55908 150.78837 35 ft 13 kts 170°
2026-04-26 02:22 -34.56006 150.78860 33 ft 16 kts 168°
2026-04-26 02:22 -34.56120 150.78885 35 ft 17 kts 171°
2026-04-26 02:23 -34.56188 150.78897 36 ft 0 kts 175°
2026-04-26 02:23 -34.56214 150.78898 34 ft 10 kts 179°
2026-04-26 02:23 -34.56318 150.78906 34 ft 17 kts 169°
2026-04-26 02:23 -34.56426 150.78931 33 ft 15 kts 169°
2026-04-26 02:24 -34.56532 150.78954 33 ft 16 kts 169°
2026-04-26 02:24 -34.56645 150.78980 33 ft 16 kts 169°
2026-04-26 02:24 -34.56681 150.78989 33 ft 0 kts 172°
2026-04-26 02:24 -34.56691 150.78989 33 ft 7 kts 192°
2026-04-26 02:25 -34.56722 150.78912 33 ft 7 kts 258°
2026-04-26 02:25 -34.56704 150.78891 33 ft 0 kts 351°
2026-04-26 02:25 -34.56545 150.78855 35 ft 51 kts 350°
2026-04-26 02:26 -34.56025 150.78737 70 ft 95 kts 349°
2026-04-26 02:26 -34.55357 150.78570 402 ft 100 kts 348°
2026-04-26 02:26 -34.54699 150.78369 851 ft 98 kts 344°
2026-04-26 02:26 -34.54141 150.77879 1213 ft 104 kts 330°
2026-04-26 02:27 -34.53384 150.77914 1479 ft 126 kts 30°
2026-04-26 02:27 -34.52984 150.78905 1726 ft 142 kts 86°
2026-04-26 02:27 -34.53074 150.80085 2106 ft 143 kts 90°
2026-04-26 02:27 -34.53147 150.81300 2332 ft 145 kts 89°
2026-04-26 02:28 -34.53232 150.82520 2596 ft 145 kts 90°
2026-04-26 02:28 -34.53319 150.83752 2866 ft 146 kts 90°